User: anonymous   Login
Location: Oshawa
(43.9000°N, 78.8670°W)
Time: 03:46:45
(UTC-04:00)
Language:

ITAMSAT 1 - Orbit

View from above orbital plane
View from above orbital plane
View from above satellite
View from above satellite

Ground track
Ground track

The orbit data is extracted from the following two-line orbital elements,

1 22826U 93061D   16177.87392610  .00000015  00000-0  23224-4 0  9990
2 22826  98.7542 134.2973 0007844 286.4054  73.6266 14.30284136186645
Epoch (UTC): 25 June 2016 20:58:27
Eccentricity: 0.0007844
inclination: 98.7542°
perigee height: 785 km
apogee height: 796 km
right ascension of ascending node: 134.2973°
argument of perigee: 286.4054°
revolutions per day: 14.30284136
mean anomaly at epoch: 73.6266°
orbit number at epoch: 18664

The dashed part of the orbit path shows where the satellite is in the earth's shadow,  

DLR